Starlink 3541

operational
NORAD ID: 51854 Int'l Des: 2022-022 Owner: SPXS Country: US Constellation: starlink
LEOCIRCULAR

Über Starlink 3541

Beschreibung wird geladen...

Live-Position

3D-Globus wird geladen...

Nächste Überflüge

Höhenverlauf

Altitude vs Time

uPlot chart will show altitude changes over time

Zweizeiliger Elementsatz

1 51854U 22022C 25305.54199073 -.00001269 00000-0 -61641-4 0 9996
2 51854 53.2186 234.3968 0001519 91.5997 268.5169 15.08834695203675
Epoch: 1. Nov. 2025 • Age: 20 hours

Aktueller Status

Höhe 547.9 km
Geschwindigkeit 7.59 km/s
Subsatellitenpunkt -25.94°S, 105.4°W
Startdatum 3. März 2022
Alter 3.6 years
Typ internet

Technische Details

Klassifizierung Payload
Masse 297.00 kg
Trockenmasse 275.00 kg
Gesamtmasse 297.00 kg
Länge 0.20 m
Durchmesser 2.80 m
Spannweite 9.00 m
Form Box + pan
Hersteller SPXS
Bus-Typ Starlink
Phasenstatus In Orbit
Besitzer/Staat SPXS/US

Große Konstellationen

Loading constellations...